Theta_e
320 318 318 318 316 317 318 321 325 324 324 326 325 326 327 326 326 326 326 326 326 326 327 328 327 327 329 329 328 328 327 327 327 326 329 330 325 324 327 327 329 331 333 335 336 337 336 336 336 336 336 335 335 335 334 334 334 332 329 331 331 330 330 329 330 330 330 329 330 330 331 332 332 332 333 333 334 335 336 337 338 338 338 338 338 338 337 337 336 336 336 334 332 332 331 330 330
320 319 319 318 316 319 319 320 325 325 324 326 324 326 326 325 325 326 326 327 326 326 325 325 326 327 330 329 327 328 327 327 327 329 330 325 324 326 327 327 329 331 333 335 335 336 336 335 335 336 335 334 334 333 332 331 332 329 327 331 330 330 330 330 330 330 330 329 329 330 331 331 331 332 333 333 334 336 337 337 338 338 338 337 337 337 337 337 336 336 335 333 331 331 330 330 330
318 318 319 319 318 319 321 319 322 323 325 326 323 325 326 325 325 325 325 325 325 324 323 323 325 325 328 328 327 327 327 328 327 329 329 324 327 328 326 328 329 331 333 333 335 335 336 335 334 335 334 334 334 332 331 329 329 323 325 331 330 330 330 330 330 330 330 329 330 330 330 330 331 333 334 334 335 337 337 337 338 338 337 337 337 336 336 336 335 335 334 332 330 330 329 329 329
316 317 318 319 319 319 321 320 320 322 324 323 322 324 325 324 324 324 325 324 323 322 322 323 324 323 324 325 326 327 327 328 326 326 329 326 326 327 326 328 329 331 332 333 335 335 336 335 333 334 333 334 334 333 332 330 328 321 325 331 331 331 331 330 329 330 330 330 330 330 329 330 333 334 334 335 336 337 337 337 337 337 337 336 336 336 336 335 335 334 332 330 329 328 328 327 328
316 317 316 317 320 320 321 321 321 322 323 322 322 323 323 322 322 323 323 323 321 321 322 324 324 322 321 322 324 327 327 327 326 323 327 326 323 325 326 327 329 330 331 332 334 334 335 334 333 332 333 334 334 334 332 331 327 322 326 331 331 331 330 330 329 329 330 329 330 329 328 331 334 334 334 335 336 337 337 337 337 337 336 335 335 335 335 334 334 333 331 329 328 327 327 326 327
317 317 315 314 317 318 320 323 323 323 322 322 322 322 321 321 321 322 321 321 321 322 323 324 324 323 323 322 322 324 326 326 325 322 324 325 323 325 327 327 329 329 330 332 333 334 334 333 332 333 333 333 333 334 333 331 326 323 327 330 330 329 329 329 327 327 326 327 327 327 329 332 334 334 335 336 337 337 336 336 335 336 335 335 335 334 334 333 332 331 329 327 326 326 325 326 326
318 317 316 315 316 317 321 323 323 323 322 321 321 321 320 320 321 320 320 321 322 324 325 326 325 324 324 321 321 322 321 322 323 322 322 323 324 325 326 328 328 329 330 332 332 332 333 332 331 333 334 333 334 333 333 332 328 325 327 328 328 327 328 327 326 326 324 325 327 327 330 333 334 334 335 336 336 336 335 335 334 334 334 335 334 333 333 331 330 328 327 326 325 325 325 325 325
318 317 316 316 317 318 320 322 322 323 322 321 320 320 320 321 320 320 320 321 322 323 325 326 325 323 322 321 322 320 316 318 320 320 320 322 325 326 327 328 328 328 330 331 332 332 332 331 331 333 333 333 334 334 333 332 330 327 327 328 328 327 326 327 328 328 325 325 327 328 331 333 334 334 335 336 336 336 334 334 334 333 333 333 333 332 331 329 328 327 325 325 324 324 324 324 323
319 317 315 316 318 318 319 321 321 321 321 320 320 321 321 321 321 320 321 321 321 321 322 324 324 322 322 323 323 322 318 316 316 317 319 321 325 327 327 327 327 328 329 330 331 332 331 331 331 332 331 332 334 334 334 333 331 330 328 327 328 327 326 328 330 330 327 327 328 329 332 333 334 334 335 335 335 335 334 333 333 333 332 332 330 330 329 328 327 325 325 324 324 323 324 324 321
319 318 316 317 318 318 319 319 319 319 319 318 319 319 320 320 321 321 321 320 320 320 321 322 323 322 321 323 324 323 320 316 315 317 319 322 325 326 327 327 327 327 328 330 331 332 331 331 331 331 330 331 334 334 333 333 332 331 330 328 329 328 328 329 330 330 329 329 330 330 331 332 334 334 334 334 334 334 333 332 332 332 331 330 328 328 327 326 325 324 324 323 323 323 323 323 320
320 319 317 318 319 319 319 318 318 318 317 317 317 317 318 318 319 319 320 320 319 319 320 321 321 322 322 323 323 321 317 315 317 319 319 322 325 326 327 327 327 327 328 329 330 331 331 331 330 329 330 332 333 334 333 333 332 332 331 331 331 330 330 330 330 331 330 330 331 331 331 331 333 333 334 334 333 332 331 331 331 330 329 328 327 326 325 324 324 324 323 322 322 322 322 322 320
320 320 318 320 321 320 319 319 318 317 317 316 316 316 316 316 317 318 319 319 319 319 320 321 321 323 323 324 323 321 316 316 318 319 320 322 325 326 327 327 327 327 327 328 329 330 331 331 330 330 331 332 333 333 333 333 332 332 332 332 332 331 330 331 331 331 331 331 331 331 330 330 332 333 333 332 331 330 329 329 329 328 327 327 326 325 324 324 324 323 322 322 322 321 321 320 319
320 320 319 321 320 320 319 319 318 317 317 316 316 317 315 315 316 317 318 320 320 320 321 321 321 322 322 322 323 322 319 317 317 318 320 322 324 326 326 327 327 327 327 328 329 330 330 331 331 330 330 331 332 332 332 332 332 332 332 332 331 331 331 331 331 331 331 331 331 331 330 330 332 331 331 330 329 328 328 328 327 327 326 325 325 324 324 324 323 323 322 322 321 321 320 318 317
320 320 320 321 320 320 320 319 319 318 318 316 315 316 316 316 316 316 317 319 318 319 321 321 321 320 321 320 321 322 318 316 316 317 319 321 323 325 326 326 326 326 326 328 329 329 329 330 331 329 329 329 330 331 331 331 332 332 332 331 331 331 331 331 331 330 331 331 331 330 330 330 331 329 329 328 327 327 327 327 326 325 325 324 324 324 324 323 323 322 321 321 320 320 319 317 317
319 320 320 322 321 320 320 319 319 318 318 316 315 314 314 315 316 317 317 318 317 319 320 321 320 319 320 318 319 319 315 314 316 316 319 322 323 324 325 325 326 325 325 327 328 329 329 329 330 329 329 329 329 329 329 330 331 332 331 331 330 330 330 330 330 330 330 331 331 330 330 330 330 328 327 327 326 326 325 325 325 324 324 324 323 323 323 323 322 322 321 320 319 319 317 316 317
317 319 320 322 322 321 320 319 319 319 318 315 313 312 313 315 315 317 316 316 318 319 318 320 320 318 319 318 317 317 313 314 315 316 320 322 323 324 325 325 325 326 325 326 327 328 329 329 329 329 329 329 329 329 329 330 330 331 331 330 329 329 330 330 330 330 329 330 330 329 329 329 329 327 326 325 325 324 324 323 323 323 323 323 323 323 323 323 322 322 320 319 318 317 317 316 316
316 319 322 323 322 322 320 319 319 319 318 316 313 311 314 315 314 315 315 315 317 318 318 319 319 317 319 318 316 314 312 314 315 318 321 322 323 324 324 325 325 326 326 326 326 327 328 328 329 329 329 329 329 329 329 329 329 330 330 330 329 328 329 329 330 329 329 328 328 328 328 328 327 326 325 324 323 323 322 322 322 322 322 322 321 321 322 322 322 321 320 318 318 318 317 316 316
317 321 323 323 322 321 319 319 318 318 318 317 315 312 314 316 315 314 314 316 317 317 317 318 317 317 319 317 314 313 313 315 317 319 321 322 323 324 325 325 326 326 326 326 326 326 327 328 328 328 329 328 329 329 329 329 329 329 329 329 328 327 328 329 329 329 328 328 327 327 327 327 326 325 324 323 322 322 322 322 321 321 321 321 320 320 321 321 321 320 319 319 318 318 318 316 315
320 322 323 323 321 320 319 318 318 317 317 318 317 314 313 314 314 315 315 316 317 317 317 317 317 317 318 317 314 313 314 316 318 320 322 322 322 323 324 324 325 326 326 326 326 326 326 327 327 327 328 328 328 328 328 329 329 328 329 329 327 327 328 328 328 327 327 327 327 327 326 326 326 325 324 323 322 322 321 321 321 321 320 320 320 320 320 321 321 320 319 319 318 318 316 314 315
320 322 322 322 320 320 319 318 318 317 317 318 318 316 314 313 313 314 315 316 317 317 317 317 317 317 317 319 318 315 315 317 318 320 322 322 322 322 323 323 324 325 325 326 326 325 325 326 327 327 327 328 328 328 327 327 328 328 328 328 327 327 327 327 327 326 326 326 326 325 326 326 325 324 323 323 322 322 321 321 321 321 320 320 320 320 320 320 320 319 319 318 318 318 314 313 314
320 321 322 321 319 320 319 317 318 317 316 317 317 316 316 315 313 314 315 317 317 317 317 316 316 316 316 318 319 317 317 318 318 320 321 322 323 322 323 323 323 324 324 325 325 325 324 325 326 326 326 327 327 327 327 327 327 327 327 327 326 326 326 326 326 325 325 325 324 324 325 325 324 323 323 322 321 321 321 321 320 320 320 320 319 319 319 319 319 319 319 318 317 316 313 313 314
319 319 320 319 318 319 319 317 317 317 315 315 316 316 316 316 314 314 315 317 317 317 317 316 316 316 316 317 318 317 317 318 319 320 321 322 323 323 323 323 323 323 323 324 324 324 324 324 325 325 326 326 327 327 327 327 327 326 326 326 325 325 325 325 324 324 324 324 324 324 324 324 323 323 322 321 321 321 321 320 319 319 319 319 319 319 318 318 318 318 318 317 316 315 312 312 313
319 319 318 318 318 318 318 317 315 314 314 315 316 315 314 315 315 316 316 316 317 316 316 316 316 316 316 317 316 315 316 316 318 319 320 321 322 323 322 322 323 323 323 323 323 323 323 323 323 324 325 326 326 326 326 326 327 326 325 326 326 325 324 324 324 323 324 324 323 323 323 323 322 322 321 321 320 320 320 319 319 319 318 318 318 318 317 317 317 316 316 315 315 313 311 311 312
317 318 317 316 316 316 316 316 314 313 314 316 314 313 313 315 316 316 316 316 316 315 315 315 315 316 315 315 315 315 316 316 318 319 319 321 321 322 322 322 322 322 322 322 322 322 322 322 322 322 323 324 325 325 325 325 326 325 325 325 325 325 324 324 324 323 323 323 323 322 322 322 321 321 321 320 319 319 319 319 318 318 318 317 317 316 316 316 315 315 314 314 314 311 309 310 310
315 316 316 316 315 315 315 314 313 313 313 313 312 312 314 315 315 315 315 315 315 314 314 314 314 314 313 313 314 315 315 317 318 318 318 319 320 321 321 321 321 321 321 321 321 321 321 321 321 321 321 322 324 324 324 324 325 325 324 324 324 324 324 324 323 323 322 322 322 322 321 321 320 320 320 319 319 318 318 318 317 317 317 316 315 315 314 315 314 314 313 312 312 310 308 309 309
314 314 313 313 313 312 312 310 310 310 311 311 311 311 312 312 312 312 312 312 313 313 313 313 313 313 313 313 313 314 314 316 317 318 318 318 318 320 320 320 320 320 320 320 321 321 320 320 319 319 320 320 322 323 323 324 324 324 324 323 323 324 324 323 323 322 322 322 321 321 320 320 319 319 319 318 318 318 317 316 316 315 315 314 314 314 313 313 312 313 311 308 309 308 306 307 307
310 310 310 309 309 308 308 308 308 307 308 309 309 310 311 311 311 311 311 309 310 311 311 311 311 311 312 312 312 313 314 315 316 317 317 317 317 317 318 318 319 319 319 319 320 320 319 319 318 318 318 318 320 322 322 323 323 323 324 324 324 324 323 323 323 322 322 321 321 320 320 319 319 319 318 318 317 317 316 315 314 314 313 313 313 312 312 311 310 309 305 302 306 306 304 305 305
307 307 307 308 308 308 307 306 307 307 307 307 308 309 310 310 310 310 310 309 309 310 310 310 310 310 310 311 311 312 313 314 316 315 315 316 316 316 316 317 318 318 318 318 319 319 318 318 318 317 317 317 319 321 321 322 322 322 323 323 323 323 322 322 322 321 321 321 320 320 319 318 318 318 318 317 316 315 314 313 313 312 312 312 311 311 310 309 307 303 299 298 302 302 302 302 302
306 305 307 309 308 309 308 308 308 308 308 308 308 309 310 310 310 310 309 309 309 309 309 310 310 310 310 310 310 310 311 312 313 313 314 314 315 315 315 315 316 316 316 317 317 318 318 318 317 317 316 316 318 320 320 321 322 322 322 322 322 321 320 321 321 321 321 320 320 319 318 318 318 317 317 316 315 314 313 313 312 311 311 311 311 310 308 305 302 299 296 296 298 298 299 299 300
307 307 308 309 310 311 309 308 308 308 308 307 308 310 311 310 310 310 309 308 309 309 309 309 309 309 309 308 308 308 308 309 310 311 312 313 313 313 313 313 314 314 315 315 315 316 317 317 316 316 315 314 317 319 319 320 321 321 321 321 321 320 320 320 320 320 320 319 319 318 318 317 317 316 315 314 313 313 313 312 311 311 310 310 309 308 305 302 300 297 295 295 295 296 296 297 297
308 309 309 309 311 311 308 307 307 308 307 306 308 310 310 309 310 308 306 306 307 308 308 309 309 308 308 307 306 307 307 308 308 309 310 311 312 312 312 312 312 313 313 314 314 315 316 316 316 315 315 314 315 317 318 318 319 319 318 319 319 318 319 319 319 319 318 318 318 317 317 316 315 315 313 312 312 312 312 311 310 310 309 309 308 305 302 300 298 296 294 294 294 294 294 295 295
307 309 310 310 311 310 308 307 307 308 307 305 308 309 308 308 308 306 304 305 306 307 308 308 308 308 308 308 307 307 308 308 308 308 307 308 309 310 311 312 312 312 312 313 313 313 314 315 315 315 314 313 313 315 316 317 317 318 317 317 318 317 317 318 318 318 318 317 317 316 316 315 314 313 312 311 311 311 311 310 309 308 308 307 305 302 299 297 296 294 293 293 292 292 293 293 293
308 308 309 308 308 308 307 306 306 307 307 306 307 308 307 307 307 306 305 306 307 307 308 308 309 309 309 309 308 308 308 308 309 308 306 305 305 306 307 309 310 311 312 312 312 312 313 314 315 314 314 313 312 313 314 315 316 317 317 317 317 317 317 317 317 317 317 316 316 315 315 315 313 312 311 310 310 310 310 309 308 306 306 305 302 299 297 295 294 293 292 292 291 291 291 291 291
308 308 308 307 307 307 307 306 306 307 307 307 307 308 308 307 308 307 307 308 308 308 308 308 308 309 309 309 309 308 309 309 307 304 303 301 301 302 302 304 306 308 310 310 311 311 312 313 313 314 313 313 312 312 312 313 314 315 315 315 316 317 317 316 316 316 316 315 315 314 313 313 313 311 310 309 309 309 309 308 306 304 304 302 298 295 294 293 292 291 291 291 291 290 290 290 289
308 308 307 308 307 307 307 307 307 307 307 308 308 308 308 308 308 308 308 308 308 308 308 308 308 308 308 308 308 308 308 306 302 300 299 298 298 299 299 300 302 305 307 309 309 310 310 311 312 312 312 312 312 311 310 310 312 312 312 313 313 314 314 314 314 314 314 314 313 312 312 312 312 311 309 308 308 307 307 306 303 302 301 297 294 292 291 291 290 290 290 290 290 290 289 289 288
308 307 307 308 307 307 307 307 307 306 307 308 308 308 308 308 308 308 308 308 308 308 307 308 307 307 308 308 307 305 303 300 298 297 297 296 296 296 297 298 299 302 305 307 308 309 309 310 311 311 311 311 311 311 309 308 309 309 310 309 309 310 310 309 311 312 312 312 312 312 310 310 310 310 308 307 306 306 305 303 301 299 297 294 291 291 290 290 289 289 289 290 289 289 289 288 288
307 308 308 308 308 308 307 307 308 307 308 308 308 308 308 308 308 307 308 307 307 307 307 308 307 307 307 305 302 299 297 297 296 296 295 294 294 294 295 297 298 300 303 305 307 308 308 309 310 310 311 311 310 310 309 307 307 307 306 306 306 307 307 307 307 309 311 311 310 310 309 308 308 308 307 306 305 304 302 299 298 296 292 291 290 290 290 289 289 289 289 289 289 289 288 288 288
307 307 308 307 307 307 307 307 308 308 308 308 307 308 308 307 307 307 307 307 307 307 306 306 305 304 302 298 296 295 295 295 294 294 293 292 292 293 294 295 297 299 302 304 305 307 308 308 309 309 310 310 310 309 308 307 306 306 306 305 305 305 305 305 305 307 308 308 307 307 307 307 306 305 305 304 303 301 298 296 294 292 290 290 290 290 289 289 289 289 289 289 288 288 288 288 287
307 307 307 307 307 307 307 307 307 307 307 308 307 307 307 306 307 307 306 307 307 304 301 300 299 298 296 294 294 293 292 292 292 291 291 291 290 291 292 292 294 297 300 302 304 306 307 307 307 308 308 309 309 308 307 306 305 305 305 305 304 304 304 304 304 305 305 304 303 303 303 303 302 301 301 300 299 297 295 293 291 290 290 290 290 289 289 288 288 288 288 288 288 288 287 287 287
307 307 307 307 307 307 307 307 307 307 306 307 307 307 307 306 306 307 306 306 304 300 296 295 295 294 293 292 291 290 290 290 289 289 289 289 289 289 290 290 291 294 296 299 302 304 305 306 306 306 307 307 307 307 306 306 305 304 304 304 303 303 303 303 302 302 302 301 300 300 300 299 299 298 298 297 295 294 293 291 289 289 290 290 290 289 289 288 288 288 288 288 288 287 287 287 287
307 308 307 307 307 307 307 307 307 307 306 307 307 307 307 306 306 306 304 303 301 297 296 295 293 292 291 290 289 289 288 288 288 287 287 287 288 288 288 288 289 291 292 294 297 301 304 305 305 305 305 305 306 305 305 304 304 304 303 303 302 302 301 300 299 299 299 299 299 299 298 298 297 297 297 295 294 293 292 290 289 290 290 290 290 289 289 288 288 288 288 288 287 287 287 286 286
307 308 308 307 306 307 307 307 307 306 306 307 307 306 306 305 304 304 303 302 299 297 296 294 292 291 290 289 288 287 287 287 286 286 286 286 287 287 287 287 287 288 289 291 294 298 301 303 304 304 303 303 303 303 304 304 303 303 303 301 301 300 299 299 299 299 299 298 298 298 298 297 296 296 296 295 294 293 291 290 289 290 290 290 289 289 288 288 288 287 287 287 287 287 287 286 286
306 307 307 307 306 306 306 306 306 306 305 305 305 305 305 305 304 304 304 303 300 297 295 292 290 289 288 288 287 286 286 286 285 285 285 285 286 286 286 286 286 287 287 289 291 294 297 300 302 303 302 301 301 302 303 303 301 301 301 301 301 300 299 299 299 299 298 298 297 297 296 295 295 295 295 294 293 292 292 291 290 290 290 290 289 289 288 288 287 287 287 287 287 287 287 287 286
306 305 305 306 306 306 306 305 305 305 304 304 304 304 304 304 304 304 303 303 301 298 295 292 289 288 287 287 286 285 285 284 285 284 284 285 285 285 285 285 285 286 286 287 289 291 294 296 297 299 299 299 299 300 301 301 300 300 300 301 301 301 301 299 297 296 297 296 296 295 294 294 293 293 293 293 293 293 293 292 290 290 290 289 289 289 288 288 287 287 287 287 287 287 287 287 287
305 303 303 304 304 304 304 304 305 304 304 305 304 303 304 304 304 303 302 303 302 299 295 291 289 287 286 286 285 285 284 284 284 283 284 284 284 284 284 284 284 285 285 286 287 288 290 292 293 294 295 296 296 297 298 298 299 299 299 300 300 300 299 297 296 295 295 294 294 293 292 292 292 292 292 292 292 293 293 292 291 290 290 290 289 289 288 288 287 287 287 286 286 286 286 287 287
303 302 302 302 302 303 303 303 304 304 303 305 304 303 304 304 304 303 303 302 301 298 294 290 288 287 286 285 284 284 284 284 283 283 284 284 283 283 283 284 284 284 284 285 285 286 287 289 290 291 291 293 294 294 295 295 296 297 298 299 298 298 297 295 295 295 294 293 292 292 292 291 291 291 291 291 292 292 293 292 291 290 290 290 289 289 288 288 287 287 286 286 286 286 286 286 287
300 301 302 302 302 301 301 302 302 304 305 305 304 303 304 304 304 302 301 300 297 296 294 290 287 286 285 285 284 283 283 283 283 283 284 284 283 283 283 283 283 283 283 283 284 284 285 286 287 288 289 290 291 292 292 293 293 294 294 295 296 296 295 294 294 293 293 293 292 292 291 291 291 290 290 291 291 291 291 290 290 290 290 289 289 288 288 287 287 287 286 286 286 286 286 286 286
300 301 302 303 303 302 301 302 303 305 306 304 302 303 303 304 303 300 296 293 291 293 293 289 287 286 285 284 283 283 283 282 282 282 283 283 283 282 282 282 282 282 282 282 282 283 283 284 285 285 286 287 288 289 290 290 290 291 291 292 293 293 293 293 293 293 292 292 292 291 291 291 290 290 289 290 290 290 290 290 290 289 289 289 288 288 288 287 287 286 286 286 286 286 286 286 286
301 301 302 304 305 305 305 304 304 305 305 301 300 301 303 304 302 297 293 291 289 289 289 287 286 285 284 284 283 283 282 282 282 281 281 282 282 282 282 282 281 281 281 281 281 282 282 282 283 283 283 284 285 286 287 288 288 288 289 290 290 291 291 291 292 292 292 292 292 291 291 291 290 290 289 289 289 289 289 289 289 289 289 288 288 288 288 288 288 287 286 286 285 285 285 285 285
302 303 304 305 306 306 307 305 304 305 303 300 299 300 302 303 300 293 291 289 287 287 286 286 285 284 284 283 283 282 282 281 281 281 281 281 281 281 281 281 281 280 280 280 280 280 281 281 281 281 281 281 282 284 285 285 286 286 287 288 288 288 289 289 289 290 290 290 291 291 291 291 290 290 290 289 289 289 289 289 289 289 289 289 289 289 288 288 288 287 286 286 285 285 285 285 285
303 303 303 304 305 305 306 305 304 305 304 301 299 300 303 303 298 291 289 288 286 286 285 285 284 284 283 283 282 282 282 281 281 280 280 280 281 280 280 280 280 280 279 279 279 279 279 279 279 279 279 280 280 281 282 282 282 283 285 285 286 286 286 287 287 287 288 288 289 289 290 290 290 290 290 289 289 288 288 289 289 289 289 289 289 288 288 288 287 287 286 286 285 285 285 285 285
302 301 303 304 304 304 304 305 305 304 304 303 301 302 302 299 293 289 288 287 286 286 285 285 284 283 283 283 282 282 281 281 280 280 280 280 280 280 279 279 279 279 278 278 278 278 278 278 278 278 278 278 278 278 279 279 280 281 282 282 283 284 284 284 285 285 285 286 287 287 287 287 288 288 289 289 288 288 288 289 289 289 289 289 288 288 288 287 287 287 287 286 286 286 285 285 285
302 302 303 302 301 303 304 304 304 303 304 305 302 302 301 297 294 291 289 288 287 286 285 284 284 283 283 283 282 281 281 280 280 279 279 279 279 279 279 279 278 278 278 277 277 277 277 276 276 276 276 276 276 276 277 277 278 279 279 280 280 281 281 282 282 283 283 284 284 285 284 285 285 286 286 287 287 287 288 288 289 289 289 289 289 288 288 288 287 287 287 286 286 286 286 285 285
302 302 302 300 301 302 302 303 303 303 303 303 302 302 301 300 298 293 289 290 288 286 285 284 284 284 283 282 281 281 280 280 279 279 279 279 279 278 278 278 278 278 277 277 276 276 276 275 275 275 275 275 275 275 275 275 276 276 277 277 278 278 279 279 279 280 281 282 282 282 282 283 283 284 284 285 286 286 286 287 288 288 289 289 289 289 288 288 288 287 287 286 285 285 285 285 285
301 301 300 301 303 303 302 302 303 303 303 302 301 301 300 301 300 295 292 292 290 287 285 285 284 283 283 282 281 281 280 280 279 279 279 279 278 278 278 278 277 277 277 277 276 276 275 275 274 274 274 274 274 274 274 274 274 274 274 275 276 276 277 277 278 278 279 280 280 279 280 280 281 282 282 283 284 284 284 285 286 286 287 287 287 288 288 288 287 287 286 286 285 285 285 285 285
300 301 300 301 302 302 302 302 302 302 302 302 301 301 300 300 298 296 294 292 290 288 286 285 284 283 282 282 281 280 280 279 279 278 278 278 278 277 277 277 277 276 276 276 276 275 275 274 274 274 273 273 273 273 273 273 273 273 273 274 274 274 275 275 276 276 277 277 277 278 278 278 279 280 281 281 282 283 283 283 284 284 285 285 286 286 286 286 286 286 286 285 286 286 285 285 286
301 302 302 301 301 301 301 301 301 301 301 302 302 301 301 297 293 292 293 291 290 288 286 285 283 282 282 281 281 280 279 279 278 278 278 278 277 277 277 276 276 276 276 276 275 275 274 274 274 273 273 273 272 272 272 272 272 272 273 273 273 273 273 274 274 274 275 274 275 276 277 277 277 278 278 279 280 281 281 282 283 283 284 284 284 285 285 285 285 285 285 285 285 285 285 285 285
300 301 301 301 301 301 301 302 302 302 301 301 301 301 301 294 289 290 290 289 289 287 286 284 282 282 281 281 280 280 279 279 278 277 277 278 277 276 276 276 276 276 276 275 275 274 274 274 273 273 273 272 272 272 272 271 271 271 272 272 272 272 272 272 273 273 273 273 273 274 274 275 276 276 277 277 278 278 279 279 280 281 281 282 282 283 283 283 284 284 284 285 285 285 285 284 284
Wind_Speed
6 5 1 2 4 5 5 4 3 4 5 9 9 10 6 5 3 3 5 3 3 1 3 3 2 1 3 4 5 6 9 10 9 7 3 1 1 8 17 12 9 14 22 25 23 26 26 25 26 23 22 20 19 18 18 20 23 22 19 16 15 14 13 13 12 12 12 12 11 11 11 12 13 14 13 13 13 13 14 14 15 16 16 16 15 15 15 16 15 15 16 16 15 15 15 14 15
7 6 2 1 2 2 3 1 3 5 6 9 9 11 5 4 3 6 8 5 4 1 2 4 3 4 5 5 6 8 8 8 9 6 2 0 1 7 15 12 10 15 22 24 24 25 22 23 24 23 22 21 19 19 19 20 23 22 20 17 16 15 14 13 13 12 12 13 12 11 12 12 14 15 14 14 14 14 14 16 16 17 16 16 16 16 15 16 16 15 16 16 15 15 15 14 14
5 3 2 3 2 1 2 2 5 6 8 9 8 8 4 4 6 7 8 6 4 3 4 5 5 4 6 8 7 9 6 4 7 4 1 1 2 6 14 12 12 16 21 24 24 25 23 23 24 23 22 21 19 18 19 19 19 20 20 17 17 16 15 15 14 13 13 13 12 13 13 13 15 15 14 15 15 15 16 17 17 18 17 17 16 16 16 15 16 15 15 16 15 15 14 14 14
3 2 2 3 1 0 2 4 6 6 8 8 6 5 6 7 8 9 6 3 3 5 6 5 5 2 5 9 4 6 7 3 3 3 1 1 1 6 13 13 14 16 21 24 24 24 23 24 26 24 21 20 18 16 17 16 14 16 18 16 17 17 16 16 15 15 14 14 13 14 14 15 15 14 14 16 16 17 18 18 18 18 18 18 17 17 16 16 16 15 15 16 16 15 14 14 14
2 2 2 3 2 1 2 4 5 7 8 6 5 3 5 8 9 8 2 2 5 7 7 5 5 1 3 7 2 4 4 2 1 2 2 0 3 8 12 13 14 15 22 26 25 23 21 24 26 24 22 20 18 15 14 13 12 15 17 16 17 18 16 15 15 16 16 16 15 15 15 15 14 14 15 16 17 18 19 20 19 19 19 19 18 17 17 16 16 15 16 16 15 15 15 15 14
2 3 3 2 1 1 3 6 6 8 8 6 5 1 2 5 4 4 2 4 6 7 7 6 5 3 4 3 3 5 2 1 1 3 3 1 4 11 13 13 12 14 24 29 27 23 21 24 25 23 22 19 17 16 14 13 12 14 16 17 18 17 16 15 16 16 16 17 16 16 16 15 14 15 15 16 18 19 20 21 21 20 19 18 18 17 17 16 17 16 16 15 15 15 15 14 14
2 3 2 2 2 2 6 9 9 9 8 7 6 3 3 3 1 3 5 5 5 6 5 4 3 5 6 1 3 6 4 4 0 2 6 3 5 14 13 11 12 16 26 30 27 25 23 24 24 22 21 19 17 16 15 13 13 14 15 16 16 16 16 17 17 15 15 17 17 17 17 15 15 15 15 16 18 19 21 22 21 21 20 19 18 17 17 17 17 15 15 14 14 14 14 14 15
2 2 0 3 4 3 7 9 10 9 4 3 5 7 5 2 2 6 8 6 4 4 3 3 2 6 5 2 4 3 5 7 3 4 6 5 8 16 13 11 14 19 25 27 24 24 25 24 23 23 21 19 17 16 16 15 14 15 14 15 15 16 17 18 17 16 16 17 18 18 16 15 15 15 16 17 18 19 21 21 21 20 20 18 18 19 19 18 15 13 14 13 13 13 13 13 14
2 2 1 4 5 5 7 8 8 8 4 2 5 8 5 2 5 8 10 9 6 7 5 2 3 6 5 2 7 1 3 7 7 6 6 6 11 17 15 13 15 20 22 22 21 22 24 24 24 23 21 19 18 17 16 15 15 15 15 15 16 16 17 17 16 16 17 18 18 18 16 15 15 16 17 18 19 19 20 21 21 20 20 19 20 20 19 16 13 13 14 13 13 12 11 12 14
3 2 2 4 5 7 8 8 7 6 5 5 5 8 8 5 6 9 11 11 8 8 3 2 5 9 8 8 8 2 2 5 9 8 7 9 13 16 13 13 15 22 24 20 20 20 23 25 24 22 21 20 19 18 17 16 16 16 16 16 17 17 17 17 17 17 18 17 16 17 16 15 15 16 17 19 21 20 21 22 23 22 21 21 20 19 17 14 13 15 14 13 12 11 11 10 13
4 2 2 4 6 8 8 7 7 5 4 4 5 9 10 6 7 9 10 12 10 8 3 3 4 8 8 9 6 1 0 4 7 5 7 10 15 16 11 12 14 22 26 24 23 20 21 25 25 22 21 20 19 19 18 17 17 17 17 18 18 18 18 18 18 18 18 18 16 15 15 15 15 16 18 20 22 22 23 25 25 24 22 21 19 17 16 14 15 15 14 13 12 11 11 10 12
5 4 3 6 8 8 7 7 7 6 5 5 7 8 6 5 7 8 11 11 9 9 6 5 2 3 5 6 4 3 3 1 3 3 7 10 13 14 11 12 14 18 22 24 25 24 23 24 24 22 21 20 19 19 17 18 19 19 19 19 20 19 19 19 18 18 19 18 17 16 15 16 16 17 19 20 22 23 24 25 26 25 23 21 19 16 16 16 16 15 13 13 12 11 11 10 12
5 5 5 8 8 9 8 7 5 5 7 6 7 4 2 5 8 10 10 9 10 9 5 5 3 2 6 5 5 2 5 4 2 5 7 9 10 12 12 12 14 18 20 22 21 22 25 24 24 22 21 20 19 18 17 18 20 20 21 21 21 20 19 19 19 19 19 19 18 18 17 16 16 17 18 20 23 24 24 25 25 24 23 21 19 17 17 17 17 15 13 12 11 11 10 11 13
5 4 6 9 7 8 8 7 6 6 7 3 3 2 2 6 7 8 8 8 11 6 1 2 4 4 5 4 5 1 5 5 1 5 6 8 8 10 12 13 16 19 22 23 21 22 24 23 23 22 21 21 20 19 17 18 19 21 22 22 23 23 22 20 21 20 20 20 20 19 18 17 16 16 18 21 24 24 24 23 24 24 22 21 19 18 17 17 16 15 14 12 11 10 10 12 14
4 3 5 9 8 9 8 7 7 7 5 1 1 0 2 6 5 6 7 10 8 1 2 2 4 4 2 4 6 3 4 3 3 5 4 6 7 8 11 15 18 20 22 22 21 22 22 20 21 20 19 19 20 20 19 18 19 20 22 23 23 23 23 23 23 22 21 21 20 19 18 18 18 18 21 23 24 25 24 23 24 23 23 22 20 19 17 16 15 14 14 13 11 9 9 13 15
3 3 5 9 10 10 7 6 6 7 5 1 1 2 4 6 4 6 4 6 5 2 2 3 4 3 2 5 6 4 3 1 6 6 4 6 7 8 9 12 15 17 19 20 20 20 20 20 20 19 18 18 18 19 18 18 19 20 21 22 23 23 25 25 25 24 23 21 20 19 18 18 19 20 22 24 24 24 24 23 23 22 22 22 21 19 17 16 15 14 14 12 10 9 8 13 16
1 4 7 9 10 10 8 7 6 6 4 3 3 3 7 8 4 3 1 3 7 3 3 3 2 3 5 4 3 2 2 1 8 7 6 7 8 10 10 12 14 15 16 18 20 19 19 20 20 19 18 18 18 17 17 17 18 19 20 21 23 23 25 27 26 26 26 24 21 20 18 18 20 21 22 23 23 22 22 22 21 21 21 21 20 19 18 16 15 14 14 12 11 8 5 11 16
4 6 9 10 11 11 10 10 8 5 6 6 5 5 8 10 5 2 1 6 8 6 5 3 3 6 9 6 4 4 1 4 8 9 10 9 9 11 13 14 16 17 18 19 20 20 20 20 20 20 19 19 19 18 17 16 18 19 19 22 21 22 26 28 28 28 27 26 23 21 20 20 21 21 22 22 22 22 21 22 22 21 21 20 20 19 18 16 15 14 15 14 13 10 6 11 17
7 7 9 11 11 11 10 12 10 8 10 11 9 6 7 8 6 2 5 10 9 10 8 5 7 9 11 8 5 4 3 6 9 11 12 13 13 14 14 15 16 18 20 20 20 20 21 20 21 22 20 20 19 19 17 16 20 19 19 22 21 23 28 29 28 26 25 24 23 22 21 21 21 22 24 23 22 22 21 21 21 21 21 21 21 19 17 16 15 17 17 14 13 11 8 12 19
7 8 10 12 12 12 10 11 12 11 12 14 12 7 7 5 4 4 8 14 13 13 10 8 11 11 11 6 5 4 6 8 10 12 13 15 16 15 16 17 17 19 19 19 20 21 22 22 21 21 21 19 19 20 18 16 19 19 18 22 25 29 30 28 27 25 23 24 23 22 22 22 22 23 24 23 22 22 22 22 21 21 21 21 22 21 19 18 19 19 17 14 15 13 9 14 19
6 7 12 11 7 9 9 10 11 11 10 12 12 9 11 7 5 6 9 14 14 13 10 11 13 13 13 5 6 6 8 9 11 13 14 15 16 17 17 17 17 17 18 18 20 21 23 25 22 21 21 20 19 20 18 16 19 19 19 22 26 29 29 28 27 25 24 24 23 22 22 22 22 23 23 23 23 22 22 21 20 20 20 20 22 23 22 22 21 18 16 15 16 12 10 16 20
6 8 12 9 4 7 8 7 9 10 6 8 11 11 11 7 6 9 12 15 12 10 9 10 12 12 14 7 5 7 8 11 12 14 16 17 18 18 17 17 16 16 17 19 21 21 22 24 24 24 25 23 21 20 18 18 22 22 22 25 26 27 27 27 27 26 26 25 23 24 23 23 22 21 21 22 22 21 20 19 20 20 19 20 22 23 23 22 20 18 17 16 15 12 11 18 20
8 10 10 9 8 10 7 4 5 5 5 8 8 7 6 7 12 12 15 19 14 10 10 11 12 12 12 5 4 7 10 12 13 17 19 19 20 21 20 18 16 15 16 18 19 20 21 23 26 28 30 30 26 22 18 20 25 25 24 28 29 29 28 27 27 26 26 25 24 24 24 23 22 21 21 21 21 20 19 19 20 20 21 22 22 23 22 21 19 18 17 16 14 12 12 18 19
8 10 9 8 8 9 8 5 3 2 7 9 6 5 7 12 14 12 17 20 14 12 12 11 13 13 10 7 9 11 12 13 16 19 20 21 22 24 22 18 16 14 15 18 17 19 21 22 25 26 28 31 31 25 21 22 26 26 27 31 32 32 30 29 28 26 26 25 24 24 23 22 21 21 22 21 21 20 20 20 20 21 22 22 22 22 21 20 19 18 17 15 14 12 14 18 18
9 10 9 5 6 7 6 6 7 6 7 7 8 10 13 15 13 16 22 19 13 13 12 11 14 14 12 13 13 12 13 14 16 18 18 19 19 19 17 15 15 16 17 19 17 18 20 20 22 24 24 28 33 31 27 28 28 27 29 33 34 33 32 31 30 28 27 25 25 25 24 23 21 22 23 22 22 21 21 20 21 22 23 23 22 22 21 20 19 18 17 15 15 13 15 18 17
6 7 7 5 7 7 5 7 8 8 6 5 9 15 15 14 12 16 18 15 15 15 14 15 16 16 14 13 13 13 13 14 14 15 15 15 12 12 14 14 15 19 20 18 17 18 17 19 21 24 24 23 30 34 32 31 30 29 31 33 34 35 35 34 32 31 29 28 27 27 26 24 22 23 24 23 22 21 21 21 21 23 23 23 23 22 21 19 19 18 17 16 15 15 17 18 17
2 5 9 9 10 8 5 7 7 5 6 7 11 16 17 13 10 11 7 2 5 7 11 12 11 14 13 12 12 12 12 14 14 12 11 11 9 13 16 16 18 20 19 17 17 16 15 18 19 22 23 22 27 33 33 33 32 32 33 34 35 35 36 35 33 32 30 29 29 27 27 24 22 24 24 23 22 21 21 22 22 23 23 23 22 22 20 19 18 17 15 15 16 16 18 18 17
5 7 11 12 11 9 7 8 7 6 7 9 12 17 20 15 14 15 6 1 1 2 9 11 10 11 12 13 12 10 10 11 10 9 11 11 10 12 14 15 16 16 16 17 17 14 14 18 20 20 21 24 30 33 33 34 33 33 34 35 36 35 36 35 34 33 30 29 28 27 26 24 23 24 23 22 22 21 22 23 23 23 23 23 23 22 21 19 18 16 14 14 15 16 17 17 17
6 6 11 13 12 12 10 10 8 8 7 6 7 14 18 16 18 18 10 9 12 10 14 16 14 14 12 11 8 6 7 7 8 9 12 12 11 11 13 16 16 15 16 17 16 17 17 18 21 21 20 24 32 34 33 35 35 34 35 36 36 35 35 36 35 34 33 32 30 29 28 26 25 25 23 22 21 22 23 23 23 23 23 24 23 22 21 19 17 15 14 14 15 16 16 17 17
7 7 8 10 12 12 7 6 5 8 6 5 5 11 15 13 10 9 5 6 10 11 14 14 14 12 8 5 4 5 5 6 8 10 11 12 13 14 17 19 19 21 19 17 19 22 21 19 20 22 21 23 31 35 34 35 36 35 36 37 37 37 37 37 35 34 33 33 32 31 28 26 25 24 23 21 22 24 24 24 24 24 24 24 24 23 21 19 17 16 15 16 16 16 17 18 17
7 8 6 6 10 7 2 4 3 6 3 6 9 10 13 12 4 3 2 3 4 9 12 11 9 8 5 4 4 6 5 6 7 9 11 13 14 15 18 19 20 23 23 23 26 26 24 22 21 22 22 22 29 35 35 34 36 35 35 36 36 36 36 35 33 32 32 31 30 29 27 26 25 24 22 22 23 25 25 25 25 25 25 25 24 23 21 20 18 17 17 17 18 18 19 19 18
5 7 8 7 8 6 2 3 3 6 3 4 9 10 12 11 3 4 4 2 2 6 9 7 7 8 7 6 5 7 7 7 8 9 10 10 13 14 17 18 18 20 22 25 26 25 24 24 24 22 21 22 25 32 35 34 34 35 35 34 34 34 34 33 32 31 31 30 30 29 28 26 25 24 23 23 24 26 26 26 26 26 26 26 25 23 21 20 19 19 19 19 19 20 20 19 18
5 6 9 8 8 9 5 1 3 4 5 5 10 11 12 7 2 3 2 1 4 7 10 11 11 11 11 10 8 9 8 8 8 6 7 9 11 13 15 17 17 17 19 21 20 19 21 22 23 22 22 22 21 25 32 35 34 35 35 34 34 34 34 33 32 31 31 31 31 31 29 27 25 24 24 25 26 26 27 27 26 26 27 26 25 23 22 21 20 20 21 20 21 21 20 20 18
5 5 8 9 10 10 7 3 2 3 4 8 11 13 16 13 7 6 6 8 11 13 16 16 15 15 13 12 12 12 11 8 6 9 14 14 13 13 14 15 16 17 17 18 18 18 18 19 21 23 22 22 21 20 24 32 34 33 34 34 35 35 34 34 34 33 33 33 33 32 31 28 26 25 25 26 26 26 26 27 27 27 27 26 24 23 22 22 21 21 21 22 22 21 21 21 19
8 8 8 9 10 11 11 8 1 1 5 10 13 15 19 20 15 15 14 12 14 16 16 15 15 15 14 13 12 11 9 6 9 13 16 16 16 16 15 14 14 14 14 15 16 17 17 17 20 22 22 21 21 19 19 27 33 31 32 33 33 34 34 34 35 34 34 34 33 32 30 28 27 26 26 26 26 26 26 27 27 27 27 25 24 23 23 23 22 22 22 22 23 22 21 22 21
13 11 10 11 11 12 13 12 5 4 9 14 16 17 20 20 16 16 16 14 15 16 14 12 12 13 13 11 8 7 8 8 11 14 15 17 17 17 17 15 14 12 12 12 14 15 17 17 19 21 22 22 22 21 19 24 30 29 29 30 30 31 32 32 33 34 34 33 33 32 30 29 27 27 26 26 26 26 27 27 27 27 26 25 25 24 24 24 24 24 23 23 24 22 21 21 20
10 11 12 13 14 14 14 13 7 5 8 14 16 18 21 20 16 15 16 15 16 16 14 12 10 9 8 6 7 9 9 8 12 14 16 18 18 20 19 15 14 12 9 9 11 14 15 16 18 19 21 22 23 23 21 23 28 27 26 27 27 28 30 29 29 31 32 32 32 31 30 29 28 27 26 26 26 26 27 27 27 27 26 25 24 24 24 24 24 25 24 24 25 23 21 20 20
10 11 12 13 13 14 13 13 9 6 6 13 17 18 21 19 15 14 14 14 16 14 10 7 7 6 5 8 9 9 8 8 11 14 17 20 20 22 20 17 16 13 9 7 8 11 13 14 16 17 19 22 24 23 19 20 24 25 26 27 25 26 27 27 26 27 29 30 30 29 29 28 27 27 26 26 26 26 27 27 27 27 25 25 24 23 23 23 24 25 25 25 24 24 22 22 22
11 9 10 12 10 11 12 12 9 6 5 10 15 15 17 17 14 13 15 15 11 5 7 7 7 7 7 9 9 9 10 10 12 14 17 20 21 21 20 19 18 15 11 7 5 7 9 12 14 15 17 20 22 21 17 15 17 19 23 23 22 22 23 24 24 24 26 26 26 26 26 26 25 25 25 26 26 26 27 27 26 25 24 24 23 23 23 24 25 25 26 26 24 22 20 22 25
8 8 9 11 9 8 9 6 3 4 6 10 13 12 15 16 12 13 14 10 0 9 11 9 9 8 8 8 8 9 10 11 12 14 16 19 21 21 21 21 20 17 15 12 8 5 6 9 11 13 15 17 18 19 16 15 15 17 18 18 18 20 20 20 21 20 22 22 22 23 23 23 24 25 25 25 25 26 27 26 25 24 23 22 23 23 24 25 26 27 27 27 25 23 19 21 27
8 10 10 10 11 11 11 8 4 5 9 11 11 11 11 10 7 6 3 4 8 9 9 10 10 8 8 8 9 10 10 11 12 13 15 17 19 20 21 21 21 19 18 17 14 8 4 6 8 9 12 13 15 17 18 18 18 18 17 15 15 15 14 15 17 17 19 20 21 22 22 22 22 23 24 25 26 26 26 26 25 24 22 22 22 24 25 25 26 27 28 27 27 25 21 21 27
9 10 12 12 14 14 14 12 8 7 8 6 6 9 8 3 4 4 4 7 8 7 8 9 9 9 9 9 10 10 10 11 11 13 14 15 18 20 21 23 22 21 21 19 17 12 7 4 5 7 8 9 12 17 20 19 18 19 19 17 16 16 14 16 19 20 21 21 21 22 21 21 22 23 24 25 25 25 25 25 24 23 22 22 23 24 24 25 26 27 27 27 27 25 22 20 23
8 5 7 11 13 13 13 11 7 7 9 2 4 8 9 7 8 7 5 5 8 8 9 9 8 9 9 9 9 10 11 11 11 12 13 15 18 20 21 23 22 22 22 20 18 16 12 8 3 3 4 7 11 16 19 19 18 19 21 21 20 19 17 17 17 16 19 20 20 20 20 21 22 23 23 24 24 24 24 24 23 23 21 21 22 23 23 24 25 26 26 27 26 25 22 17 18
7 2 4 8 10 10 11 9 8 7 9 6 6 8 9 11 11 4 5 6 8 8 8 9 8 9 9 10 10 10 11 10 10 11 13 15 18 19 20 21 22 21 22 22 21 19 17 14 10 5 3 2 7 11 15 17 17 17 18 18 16 15 13 11 11 11 14 16 17 18 18 20 21 22 22 23 23 24 23 23 23 22 21 21 21 21 22 22 23 24 25 27 27 25 22 18 17
6 3 2 5 5 8 8 7 9 6 7 9 8 7 7 10 8 4 6 7 6 7 8 8 8 10 10 10 10 10 10 10 10 10 12 15 17 19 19 20 21 22 23 23 22 21 20 19 16 13 11 8 4 4 7 10 10 10 12 12 11 10 7 7 9 11 11 12 12 14 15 16 19 20 22 23 23 23 23 22 23 22 21 21 21 21 20 21 23 25 26 28 28 26 25 22 17
2 3 2 2 3 5 5 6 8 5 5 11 9 7 7 9 9 4 4 4 2 5 6 6 8 9 9 9 9 9 9 8 9 10 12 15 16 18 18 20 22 23 23 24 24 24 23 22 21 19 17 13 10 7 4 2 2 3 5 6 6 6 6 6 7 8 8 9 9 10 11 12 14 18 21 22 23 23 22 22 22 22 22 21 21 21 20 22 23 25 26 27 29 28 27 25 20
2 2 4 4 5 4 3 5 6 4 6 10 10 11 10 8 6 2 1 0 2 3 2 5 6 7 8 7 8 9 8 8 8 9 12 15 16 18 19 21 23 23 24 25 25 25 25 24 23 24 22 18 16 13 11 8 5 4 3 0 2 3 4 5 5 6 7 8 8 8 9 9 11 14 18 21 22 21 22 22 22 22 22 21 21 21 20 22 23 23 25 25 27 29 28 27 26
1 4 4 4 5 3 3 4 4 5 7 6 5 7 11 10 3 3 2 2 2 2 1 4 5 6 6 6 7 8 7 8 8 8 10 13 16 18 20 21 22 24 25 26 25 24 24 25 25 26 26 23 21 18 16 14 12 11 9 6 3 2 2 3 3 4 6 6 6 7 7 8 9 11 15 19 21 22 21 22 22 21 21 21 20 19 18 19 19 20 23 24 25 27 28 28 28
4 4 3 4 4 2 4 4 4 6 6 1 1 2 8 10 2 3 2 1 2 1 3 4 4 5 5 6 7 7 7 8 8 9 10 11 13 16 18 20 21 23 24 24 24 23 23 24 25 26 26 25 24 23 21 19 17 15 13 11 9 6 4 2 2 1 2 3 3 5 6 6 7 9 11 14 18 21 21 21 22 21 22 22 21 19 18 18 18 19 21 23 24 25 26 27 28
5 5 4 5 4 3 6 6 5 6 3 1 2 1 5 7 1 3 3 3 4 3 4 4 4 5 5 6 6 6 7 8 8 9 9 10 12 15 16 18 19 21 22 22 23 23 22 23 25 25 26 26 26 26 25 24 22 20 17 15 13 11 9 8 7 6 4 2 1 1 2 3 3 5 6 8 12 18 21 22 22 22 22 22 21 20 20 19 18 19 20 21 23 24 24 26 28
4 3 3 6 5 5 7 6 6 6 4 1 4 2 4 4 1 3 4 5 5 4 4 4 4 4 3 4 4 5 7 8 8 9 10 11 14 15 15 17 19 20 21 22 22 22 22 23 24 25 25 26 26 26 26 26 25 24 22 19 17 15 14 12 11 9 8 6 5 4 3 3 3 3 2 5 11 16 20 21 21 21 21 21 20 19 19 19 18 19 20 21 22 24 25 25 26
2 2 3 5 4 4 5 6 6 6 7 4 4 4 4 0 3 5 6 6 5 4 5 5 4 4 3 4 5 6 7 8 8 8 10 12 14 14 15 17 18 19 21 21 21 22 22 22 24 24 24 25 26 27 26 25 25 25 25 23 21 19 17 16 14 13 11 9 7 6 6 5 3 3 3 5 9 13 16 18 19 19 19 19 20 19 19 19 19 19 20 21 22 23 24 25 24
2 3 4 1 1 3 5 7 4 3 7 5 5 7 3 2 3 6 7 6 6 5 5 5 4 4 4 4 5 6 7 7 8 8 9 11 13 14 16 17 18 19 20 21 22 22 22 22 23 24 25 26 26 27 26 25 26 27 27 26 24 22 21 19 18 16 13 11 10 9 7 5 3 2 2 3 5 7 9 12 14 16 17 18 19 20 20 20 19 20 20 20 21 22 23 23 22
2 4 2 2 1 2 3 5 3 3 7 6 6 10 7 4 3 5 8 7 7 7 6 6 5 4 5 5 6 6 6 7 7 8 8 10 12 14 15 16 17 18 18 20 21 21 22 23 24 25 26 26 26 26 27 27 27 28 28 27 26 24 23 22 20 18 16 15 13 12 10 8 6 5 3 1 1 2 4 6 9 12 14 16 17 17 18 18 18 19 20 19 20 21 21 21 20
2 2 1 1 3 3 3 3 5 6 8 7 6 7 7 7 4 6 11 11 9 8 7 6 5 5 5 5 6 6 6 6 6 7 7 9 12 13 14 15 16 16 17 18 19 20 22 23 24 25 25 26 27 28 29 29 29 28 27 28 28 27 25 24 22 21 19 19 18 16 14 13 11 8 6 3 1 1 2 4 5 7 10 11 12 13 13 14 15 15 16 18 19 20 20 20 21
1 1 2 2 3 5 3 2 3 4 7 9 8 5 5 6 3 5 9 10 10 10 8 7 5 5 5 5 5 5 5 5 5 6 6 9 11 12 12 13 14 15 15 16 17 19 20 21 22 23 23 25 28 29 29 29 30 29 28 29 29 28 27 26 25 23 22 22 21 19 18 17 15 13 11 8 5 3 1 2 4 5 7 8 9 10 11 12 13 14 15 17 18 18 20 21 21
4 5 5 4 3 2 3 3 3 5 7 7 7 8 6 1 1 3 6 7 9 10 9 7 6 6 5 5 5 4 5 5 5 6 6 7 9 10 11 12 12 13 14 15 16 17 18 19 20 21 21 22 24 25 25 26 27 29 29 29 28 28 27 27 26 25 24 23 22 21 20 19 18 17 16 13 11 8 6 3 1 3 5 7 8 9 10 11 12 13 15 17 17 18 19 20 21
7 8 7 8 6 3 5 6 5 5 6 6 6 10 6 2 2 2 5 6 7 9 9 8 7 7 6 6 5 5 5 5 6 5 6 7 8 9 10 11 12 13 14 15 15 16 17 18 18 19 20 20 20 21 22 22 24 26 27 27 27 27 27 26 26 26 25 24 23 22 20 19 18 18 17 17 16 14 11 9 6 3 1 3 6 8 9 10 10 11 13 14 16 17 18 19 19
Wind_Direction
201 195 138 77 73 97 117 94 197 219 233 242 236 240 224 185 241 255 232 216 211 323 352 317 337 300 280 281 282 289 284 266 263 258 264 48 92 178 180 188 184 172 176 176 176 175 171 173 174 175 180 181 182 182 187 191 186 181 177 177 186 189 189 192 191 192 188 186 188 191 189 186 184 178 177 176 176 174 173 173 166 162 157 151 148 145 142 137 133 131 126 124 121 114 112 108 107
197 199 230 123 79 141 177 71 212 212 223 238 237 236 221 153 206 232 235 225 191 167 342 306 295 268 258 275 284 283 271 248 262 281 342 87 262 184 182 186 175 169 176 179 177 178 175 175 175 175 181 183 183 186 192 194 191 190 181 176 188 192 193 194 193 195 195 189 186 193 193 192 186 176 175 176 176 177 176 173 165 161 158 153 149 145 142 138 133 130 126 124 121 116 114 110 109
184 169 191 174 83 29 176 168 229 223 222 234 234 220 194 203 225 225 230 234 210 209 278 286 269 260 246 248 256 270 273 253 255 263 296 248 296 183 185 183 167 168 177 180 178 178 179 177 176 175 180 180 180 185 192 194 193 193 183 179 189 192 196 196 195 195 197 193 189 195 194 191 185 177 179 179 178 178 175 170 165 162 158 154 150 146 142 139 135 131 129 124 121 118 116 113 112
158 132 148 193 174 78 181 203 234 233 231 237 239 201 182 223 234 235 237 248 248 250 270 278 262 227 253 268 283 279 271 266 242 233 266 196 248 179 182 181 162 166 177 181 181 180 181 181 179 177 178 177 178 181 186 190 193 192 183 182 189 192 200 200 196 195 195 194 195 196 192 186 181 181 184 183 179 175 171 168 165 162 160 154 151 147 142 139 134 132 128 122 122 120 118 117 115
112 104 128 217 218 206 218 226 230 230 235 236 244 185 178 225 240 253 266 258 251 251 256 260 269 159 245 275 289 278 273 267 179 204 258 276 214 174 177 180 164 175 181 177 177 178 180 182 180 177 175 175 179 180 184 186 187 189 183 183 191 197 202 201 197 197 196 195 195 192 187 183 180 185 186 184 178 172 169 166 165 163 161 154 150 145 139 139 133 128 125 124 127 123 122 122 118
128 116 130 225 257 294 239 231 225 229 236 234 243 174 173 239 257 280 283 253 242 235 239 244 272 288 259 249 218 254 302 294 140 193 211 274 209 175 175 176 172 186 184 178 176 175 176 179 179 176 174 175 180 181 187 187 182 186 185 188 196 200 200 199 197 196 197 193 189 186 185 183 183 186 185 183 175 171 168 164 165 163 159 154 149 143 139 138 130 125 126 129 130 125 125 124 123
178 161 153 201 186 223 237 236 234 236 231 224 245 274 283 284 312 284 273 264 229 205 210 232 276 288 273 215 233 241 226 222 154 199 193 220 195 172 173 171 176 181 181 182 181 180 175 175 177 175 175 178 180 181 187 189 185 187 190 193 197 200 197 194 191 188 190 186 183 183 185 185 185 185 184 181 173 171 168 163 164 160 156 152 147 143 140 136 133 133 129 130 130 126 127 124 128
213 213 147 230 208 209 240 241 242 245 228 207 247 260 280 320 293 275 278 277 257 243 215 210 224 274 278 149 255 228 202 227 218 228 203 206 183 174 176 174 178 176 179 181 181 182 178 178 179 178 179 180 182 184 188 190 188 192 196 196 197 196 191 186 185 185 184 181 180 181 184 187 186 186 186 181 173 170 167 162 161 158 155 151 146 145 142 141 143 140 129 129 131 128 127 126 133
197 226 178 239 226 221 238 243 242 246 244 238 244 251 270 283 267 274 275 273 271 276 256 202 198 259 289 237 266 218 166 229 218 226 212 197 180 179 183 178 179 176 179 182 182 182 181 183 183 183 184 183 185 187 191 193 190 194 198 197 195 191 188 187 188 188 185 183 182 182 186 188 186 189 189 181 174 171 166 161 158 155 153 148 145 147 148 151 148 135 130 132 132 129 127 126 136
183 223 228 233 235 234 234 242 242 242 244 245 250 258 267 248 246 260 268 274 274 276 282 105 209 247 281 285 281 255 177 220 212 221 207 196 180 181 185 186 184 177 179 182 184 184 184 188 186 188 190 188 187 189 192 195 194 195 199 197 194 192 193 195 192 189 187 187 185 186 190 189 188 191 188 180 175 172 169 163 157 151 148 146 144 148 153 155 144 132 133 134 132 130 128 126 137
201 197 243 239 232 238 237 241 236 239 232 233 258 255 259 248 247 256 257 267 273 273 254 136 228 248 264 279 284 192 351 222 205 217 201 195 183 179 183 194 194 183 181 183 184 185 187 189 188 190 194 195 192 193 195 197 197 196 199 197 197 197 199 198 194 191 189 188 186 188 192 191 191 190 187 184 180 174 167 160 153 147 144 144 144 149 153 146 137 134 136 135 134 131 129 128 138
223 196 207 239 238 243 247 253 247 254 246 233 254 251 253 237 235 249 249 256 265 268 244 201 231 288 256 270 294 119 73 273 205 211 199 187 183 181 181 190 193 187 185 186 187 186 190 190 190 192 197 200 197 198 200 201 199 198 201 200 201 200 200 198 194 193 190 188 184 185 189 190 191 189 189 185 178 168 158 153 147 145 144 144 144 148 147 139 136 139 140 136 135 132 131 135 146
231 217 220 242 248 254 256 263 263 271 264 245 250 248 232 228 230 247 252 253 254 259 250 214 197 291 270 281 292 166 75 16 218 208 199 184 181 184 184 185 188 188 186 186 186 187 191 191 193 196 199 203 201 202 205 206 204 202 203 204 204 200 197 195 193 193 189 188 185 185 187 188 190 187 185 174 165 157 151 150 147 145 144 145 146 145 141 139 142 142 142 139 137 134 134 146 155
231 231 242 249 246 256 260 262 265 265 265 254 246 222 200 237 246 257 254 252 253 249 233 197 194 243 265 282 285 234 54 21 207 203 196 191 187 185 187 187 189 192 190 188 189 190 192 193 195 198 202 207 208 208 210 213 212 209 208 209 208 202 195 194 193 188 185 185 184 184 182 182 183 177 171 162 157 152 149 149 147 144 142 144 145 145 144 143 146 144 144 147 144 136 138 154 161
239 227 245 254 248 253 249 250 262 263 264 262 263 100 231 244 241 252 243 252 269 82 99 164 192 245 303 302 305 20 33 3 187 193 185 193 193 191 193 193 195 195 195 193 194 196 195 197 197 198 203 210 215 214 215 218 218 216 216 215 214 205 195 194 192 183 181 182 180 182 180 179 176 167 161 157 155 152 147 145 145 142 140 144 145 146 149 147 148 146 152 158 148 138 144 159 165
244 241 242 251 251 253 239 230 246 257 257 206 165 89 265 253 214 247 258 265 279 111 191 205 190 261 322 293 312 36 17 300 180 183 173 192 196 197 198 197 200 198 199 198 198 200 200 202 199 200 204 210 216 215 217 219 221 222 223 222 219 208 194 191 188 182 181 180 179 179 179 179 170 161 159 156 153 149 147 147 145 142 140 143 146 150 154 153 153 153 165 169 152 150 157 165 170
219 235 244 250 247 247 241 232 227 251 262 201 190 180 251 263 203 226 331 259 254 213 206 206 173 239 251 276 326 34 355 162 170 167 170 199 204 203 205 201 202 202 204 202 202 204 204 204 202 204 205 210 214 214 217 219 222 224 228 229 220 205 192 190 187 182 181 180 180 177 175 176 166 160 161 158 151 148 149 148 146 145 142 144 150 157 162 163 162 164 178 185 180 192 198 175 174
217 229 244 248 246 249 246 240 231 249 262 242 230 196 233 264 259 211 214 232 235 239 230 221 239 235 242 256 270 280 282 161 168 169 178 196 208 213 212 206 206 206 206 205 205 207 207 207 207 207 207 209 212 214 216 218 223 226 230 228 214 199 192 188 184 180 177 175 176 174 173 171 165 164 166 163 157 152 149 148 150 149 147 149 155 163 171 170 166 174 187 197 206 229 250 186 175
222 239 245 245 250 253 240 241 241 240 254 258 251 217 222 262 289 271 262 262 246 250 244 225 244 242 241 231 233 259 200 186 185 187 192 193 203 214 217 214 213 211 208 207 208 209 209 208 208 209 208 208 209 214 219 221 227 230 230 222 204 195 192 186 182 176 172 172 173 171 171 170 169 167 167 168 164 158 154 154 157 156 155 159 162 166 172 170 171 185 193 203 219 236 247 196 180
226 234 242 248 251 249 232 239 249 243 251 263 260 250 244 253 277 251 266 277 266 261 257 246 260 265 261 223 172 200 197 204 202 201 206 201 204 210 217 219 217 215 212 210 211 211 212 210 209 209 209 209 209 215 220 220 226 228 227 218 200 191 188 187 185 179 177 179 178 176 175 173 172 169 169 170 168 165 164 164 165 165 166 169 173 173 172 175 182 192 198 208 222 231 233 198 185
232 228 247 259 253 250 237 234 249 249 250 261 264 266 265 262 253 246 264 274 269 266 253 248 267 278 281 255 162 190 201 208 210 210 215 212 211 211 216 218 217 217 216 215 215 214 214 212 211 210 209 209 210 215 217 216 222 222 219 214 198 188 187 187 186 184 186 186 182 182 181 177 175 174 173 174 173 171 171 172 173 176 179 181 184 184 182 187 194 201 207 215 221 227 224 195 185
242 238 254 263 254 260 249 225 241 249 242 250 255 257 267 275 255 248 255 260 266 273 255 249 263 270 278 274 168 189 208 212 213 212 218 219 217 216 218 217 214 214 214 217 217 217 216 213 212 212 213 213 212 215 217 217 220 218 214 210 198 193 192 191 189 187 189 188 186 187 184 182 181 181 181 180 180 180 181 183 184 186 191 191 190 192 194 197 204 210 215 221 220 226 221 195 188
254 250 254 255 249 257 260 240 236 245 241 245 252 261 276 271 265 261 251 254 261 265 262 263 264 263 271 267 177 203 214 215 214 213 217 219 219 218 218 215 211 209 212 217 219 219 218 214 214 215 217 217 215 214 214 219 222 220 216 210 205 202 198 197 196 192 191 191 191 191 189 189 190 191 189 188 188 189 191 192 193 194 196 196 194 196 199 201 208 214 217 221 219 224 212 194 192
255 261 262 262 264 263 272 280 273 269 255 258 271 283 271 259 266 269 254 259 263 252 255 264 266 261 254 234 216 221 221 219 220 219 218 220 222 221 218 214 210 208 212 218 219 219 217 216 215 215 217 218 219 216 214 221 224 223 217 208 205 205 202 201 201 198 197 195 195 197 196 196 198 201 198 194 195 196 198 198 198 198 198 197 197 200 202 204 209 213 216 216 217 218 204 194 194
232 256 270 270 275 270 277 286 283 281 270 272 275 266 261 258 266 269 263 266 264 254 254 250 253 250 238 235 232 227 228 228 227 226 225 227 230 228 221 214 211 211 217 219 218 218 217 217 215 213 214 217 220 219 218 222 222 221 216 206 201 204 203 203 203 201 200 199 201 202 203 202 203 206 203 199 199 199 201 202 201 200 199 199 200 202 205 208 210 211 213 215 216 212 200 196 195
222 257 283 281 275 274 272 273 271 271 265 247 261 266 261 257 261 267 271 268 254 251 251 241 244 246 239 239 238 235 236 235 233 232 232 232 234 232 224 218 216 219 222 220 217 218 216 216 218 215 213 214 218 220 220 221 220 217 214 208 204 205 205 206 204 203 204 205 205 204 205 206 205 206 205 203 203 203 203 203 203 201 201 202 204 207 209 211 212 211 212 217 215 206 200 198 196
301 286 290 282 277 276 263 265 263 260 258 232 250 269 267 258 245 256 282 269 222 236 249 246 247 252 251 248 243 242 243 243 244 243 243 238 233 234 230 224 225 227 227 225 221 219 217 217 222 218 213 212 216 219 220 220 220 217 214 212 212 211 209 209 207 207 207 207 207 206 205 206 205 205 205 205 206 207 208 206 205 204 204 206 208 211 211 211 211 211 215 218 210 203 202 200 197
321 312 299 285 278 273 246 253 259 250 251 227 240 267 268 256 240 249 263 229 261 299 267 262 254 251 252 251 245 238 242 250 255 256 255 249 241 241 238 233 233 235 231 230 227 220 221 222 224 221 214 215 216 217 219 219 219 218 217 216 217 217 213 210 208 207 208 208 208 208 206 206 206 205 205 208 211 213 214 212 210 209 210 210 211 212 213 211 210 212 216 213 207 205 205 203 199
301 303 296 290 288 279 252 245 246 238 243 206 231 269 263 248 244 247 242 255 273 275 268 268 261 256 251 250 250 247 250 258 263 262 263 262 257 250 246 241 236 237 234 232 228 222 222 222 224 222 216 216 216 214 217 220 220 218 219 220 220 219 215 212 210 208 207 207 207 206 207 207 206 206 206 209 215 219 217 215 213 213 213 212 211 210 211 211 211 212 210 207 206 206 207 206 202
289 281 286 292 288 282 253 230 220 226 233 166 204 268 265 258 256 242 228 265 267 255 261 266 264 264 258 263 277 274 265 252 254 257 258 259 256 250 249 245 236 235 235 230 227 223 220 218 220 220 215 216 215 213 215 218 220 219 218 219 220 218 215 214 212 210 207 206 205 205 205 206 206 208 210 211 215 218 217 215 215 214 212 210 209 208 208 209 210 211 207 205 204 204 205 203 199
284 282 275 273 274 282 138 145 181 220 216 165 212 259 271 277 293 114 71 329 255 251 264 268 274 284 292 295 285 283 279 252 254 259 256 257 258 256 254 251 239 234 231 230 232 227 218 213 216 218 216 216 215 215 216 216 218 218 217 217 217 216 215 213 212 211 209 207 206 205 206 207 209 211 214 215 215 215 215 215 214 213 211 208 206 206 207 208 210 209 208 206 202 201 202 200 196
261 271 269 255 255 267 220 161 179 241 267 169 215 257 275 283 320 80 59 22 268 267 276 282 289 295 297 294 286 287 289 271 263 263 266 270 271 270 267 262 251 238 233 235 235 228 219 214 214 217 217 215 213 214 217 216 216 217 218 217 217 216 215 215 214 213 212 209 208 208 209 210 211 213 216 217 216 215 215 214 213 212 209 206 205 206 207 209 209 208 208 207 202 200 201 200 198
231 238 265 268 262 275 277 182 145 237 271 218 222 257 277 284 28 90 109 289 299 289 284 286 285 287 288 291 292 287 284 282 280 297 329 326 306 296 286 279 269 255 246 242 238 229 223 217 214 218 221 218 213 212 215 216 216 217 218 217 216 216 216 217 216 216 215 213 211 210 211 212 213 216 218 219 218 216 215 215 213 210 206 204 206 207 208 210 211 209 207 205 203 201 200 199 197
244 231 256 265 261 273 280 259 147 165 238 248 245 259 270 270 268 273 271 275 285 284 283 285 285 287 285 284 285 281 284 298 340 359 355 346 334 324 309 296 284 272 260 249 241 234 228 219 215 220 224 219 214 211 212 216 216 215 216 216 216 216 216 216 216 215 215 215 214 212 211 212 214 217 220 220 219 218 217 216 212 207 204 205 207 208 210 212 211 209 206 203 203 202 201 198 196
278 275 275 277 268 266 270 266 234 179 253 264 266 265 269 271 272 277 279 278 278 277 281 284 284 283 281 281 280 285 303 343 15 0 350 346 340 336 325 313 301 283 267 252 242 234 228 220 214 217 220 215 213 210 208 215 216 214 214 214 214 214 213 213 213 213 214 215 215 215 214 214 216 217 219 220 218 217 216 215 211 206 205 206 208 209 211 210 208 206 206 203 201 202 203 199 197
286 289 285 285 282 274 272 272 258 258 274 270 267 268 270 273 277 280 281 281 280 279 279 276 275 276 279 286 299 331 353 6 4 353 351 350 344 340 332 322 315 298 276 258 243 231 225 220 214 215 218 216 212 210 205 209 212 212 213 212 211 211 210 210 211 212 214 216 217 218 217 216 218 218 219 218 217 216 215 213 209 206 207 209 209 209 210 210 208 205 203 203 200 199 200 198 195
285 283 278 277 278 275 275 278 258 210 261 270 266 270 272 275 280 277 278 284 282 279 279 273 275 284 297 330 2 11 8 0 356 356 357 354 351 348 342 335 329 317 291 263 243 231 225 220 216 214 216 216 212 209 205 203 205 208 209 209 209 209 210 211 210 211 215 218 219 219 219 218 218 218 218 217 215 215 213 211 208 207 208 209 211 213 214 212 210 206 202 201 201 198 194 194 193
267 267 274 274 272 275 276 278 263 205 231 268 272 274 274 276 277 272 274 277 276 284 297 304 312 328 3 19 18 12 5 0 359 360 0 358 355 353 352 350 345 337 318 283 253 238 227 220 218 215 215 216 213 210 206 201 202 207 210 209 210 211 212 213 214 215 217 220 220 220 221 220 219 218 217 215 213 213 213 211 209 209 209 210 213 214 215 214 210 207 203 198 198 199 196 193 189
260 260 269 270 270 282 279 269 259 225 225 268 277 279 278 281 276 264 263 264 272 337 32 29 14 23 32 24 18 12 5 3 3 2 1 359 357 357 358 357 354 351 344 325 285 253 232 223 224 222 217 215 213 211 206 199 199 206 211 211 210 212 213 215 218 220 221 221 220 220 220 219 218 218 216 214 212 211 213 213 212 212 212 213 213 213 213 213 210 208 206 201 195 194 197 196 191
250 252 261 268 270 279 280 265 225 207 226 269 286 286 281 283 268 250 257 260 352 69 67 57 45 41 36 31 26 17 10 6 5 4 1 358 358 0 1 359 358 0 2 358 338 289 243 231 229 225 218 214 213 211 203 195 195 195 199 204 207 210 213 216 218 222 224 223 221 220 220 219 219 218 217 215 212 211 212 215 215 216 217 217 217 215 213 212 211 210 207 205 197 188 188 195 196
247 244 249 265 270 269 274 278 281 259 244 248 269 280 279 278 247 224 221 103 94 83 71 58 49 40 34 35 30 22 18 12 8 6 2 360 360 1 3 1 1 5 6 3 355 337 290 250 233 224 216 208 207 206 200 194 193 191 189 192 199 204 208 211 214 218 221 222 222 222 222 222 221 221 221 218 216 214 214 217 219 219 220 221 221 220 219 215 214 212 208 207 203 196 191 193 196
263 242 235 252 266 270 273 279 287 288 271 230 230 275 285 266 221 206 162 123 106 82 65 52 38 34 31 27 24 20 18 16 14 10 4 3 2 2 6 6 6 7 5 2 2 1 347 306 245 223 205 192 195 204 204 200 197 195 191 188 190 193 197 206 213 217 219 220 221 223 223 222 222 223 222 220 219 216 215 218 220 220 221 223 222 221 221 218 217 216 213 210 208 206 202 193 193
276 239 214 239 256 264 268 275 273 274 289 263 183 273 289 283 274 252 219 174 124 93 64 52 36 32 31 25 22 17 16 16 13 11 9 9 8 6 8 9 9 7 4 6 11 16 17 13 345 233 198 189 202 210 209 204 198 197 197 196 197 196 199 208 213 217 221 221 222 222 221 221 222 223 222 220 219 217 218 221 221 222 224 225 224 223 223 224 224 224 221 217 213 210 206 195 191
275 166 186 238 247 257 260 267 263 265 293 280 213 245 273 282 284 238 200 206 147 105 56 49 38 30 31 26 22 19 18 17 12 11 12 12 11 11 10 10 11 11 11 13 18 23 28 32 35 40 61 143 200 208 207 202 198 196 198 199 200 201 201 199 195 203 215 219 222 222 221 221 223 224 224 223 221 220 223 224 223 224 226 226 227 229 230 230 231 231 227 222 218 214 209 204 200
273 117 177 247 246 262 263 262 266 271 289 277 243 230 253 274 274 180 184 217 164 96 50 41 31 28 29 21 20 19 19 18 16 15 13 14 14 13 12 12 15 18 18 20 23 28 34 38 43 48 48 50 79 166 190 197 200 200 201 201 199 197 191 178 188 203 210 210 212 214 214 218 222 224 225 225 224 225 226 225 224 227 228 229 231 233 234 234 234 234 228 223 219 216 215 212 210
278 110 185 241 228 253 252 252 268 266 255 270 261 227 247 280 276 242 213 215 143 68 55 47 32 33 29 19 19 17 17 18 16 18 17 18 18 16 16 18 21 23 22 25 29 32 36 38 45 52 49 44 50 59 78 129 193 200 205 209 201 189 179 174 185 194 197 196 196 200 203 209 217 224 227 227 226 227 227 225 226 229 230 232 233 232 233 232 232 232 231 228 224 222 221 219 217
75 166 242 253 233 228 229 240 258 251 243 262 254 224 236 274 282 294 18 88 19 9 59 61 39 35 30 23 23 17 17 17 14 19 20 20 22 21 21 23 24 24 25 29 30 31 34 36 44 55 55 52 51 51 53 55 53 48 36 247 184 178 183 183 177 174 184 189 188 194 198 200 209 220 226 228 227 225 225 225 227 231 231 231 231 230 231 232 232 233 234 234 231 228 227 225 224
213 242 269 274 253 223 223 226 208 231 249 264 259 228 234 253 260 83 73 57 13 327 45 64 46 39 33 28 28 22 18 18 18 20 19 20 21 21 23 25 25 24 26 28 28 30 33 34 41 51 54 55 57 59 62 62 60 55 46 43 54 89 155 175 182 179 185 190 191 195 196 200 205 213 222 226 226 224 223 225 228 230 230 229 228 228 230 232 233 237 237 235 234 233 232 230 229
208 224 231 245 254 230 221 221 207 234 251 283 26 259 241 251 269 91 121 113 87 74 72 75 65 53 43 35 29 24 24 24 25 24 21 21 20 19 22 24 25 26 26 27 28 30 32 33 39 46 47 50 57 62 65 67 67 65 61 58 54 53 62 65 57 82 174 191 199 200 198 205 208 213 221 222 225 226 223 225 229 230 231 230 228 227 226 225 228 235 238 238 238 237 235 234 233
190 212 223 233 248 258 251 252 251 252 256 102 91 60 252 254 266 101 137 128 113 104 92 89 79 69 55 44 34 31 35 31 30 29 25 24 22 20 24 26 28 28 26 27 29 31 33 34 38 42 42 47 55 59 62 65 65 65 68 70 67 63 57 51 46 38 28 15 358 239 225 234 227 228 225 219 227 229 225 228 232 234 237 236 233 229 225 223 226 233 238 241 241 242 241 238 237
206 208 233 258 262 263 269 272 270 279 292 213 146 165 256 257 136 117 126 122 122 115 109 106 94 88 74 59 47 38 41 37 33 36 32 30 26 25 28 32 33 31 29 30 30 31 35 36 37 40 40 43 49 54 57 58 59 62 66 69 72 73 70 65 63 56 49 40 31 25 10 350 332 316 283 243 242 237 232 234 238 240 242 241 237 232 229 229 231 235 238 241 242 242 241 240 241
216 149 213 255 253 234 264 274 272 289 293 261 191 228 267 323 119 135 135 129 130 128 125 123 108 97 86 69 56 45 43 38 34 35 34 33 31 32 35 36 37 36 34 33 32 33 37 38 40 42 41 42 46 50 51 51 55 60 63 65 66 69 72 71 69 68 67 67 64 58 45 30 9 344 329 291 271 258 248 245 247 248 248 244 237 232 231 234 236 238 238 239 241 241 242 243 243
160 193 232 259 130 221 259 269 255 259 274 260 227 248 250 127 164 160 155 153 143 145 143 130 115 103 92 72 59 51 48 43 40 40 36 35 35 37 40 39 40 40 38 37 37 37 39 40 42 43 44 44 45 47 49 51 56 59 60 62 62 63 65 64 63 65 68 71 73 70 61 53 40 4 340 312 297 289 275 265 259 255 252 248 243 238 236 238 241 242 242 241 241 243 245 244 240
232 236 255 74 95 242 260 269 263 245 264 267 247 254 255 246 234 163 173 188 167 159 151 134 127 111 96 80 69 61 58 56 51 48 43 40 39 40 42 43 43 43 42 42 41 41 43 43 45 46 46 45 44 47 50 52 55 56 56 58 59 60 61 61 61 61 64 67 66 62 57 50 43 36 28 343 265 272 278 276 268 261 258 255 252 249 249 249 248 247 246 245 245 245 246 245 243
289 294 76 136 248 245 211 246 277 268 271 279 264 256 250 250 245 169 189 197 173 162 157 148 142 124 108 94 85 72 67 64 55 52 47 44 43 41 44 45 44 45 45 44 44 44 45 45 48 49 49 51 54 56 56 55 56 55 55 57 59 59 60 60 61 60 61 62 60 57 55 51 48 47 45 43 42 217 227 240 252 256 259 262 262 261 259 257 255 253 251 250 249 249 248 248 250
140 195 199 221 261 266 248 237 270 265 275 283 277 267 251 252 252 162 181 182 167 165 162 155 142 122 116 105 96 84 73 67 58 57 52 49 47 44 45 46 46 47 46 46 46 46 46 46 47 49 51 54 57 58 57 57 58 58 59 60 59 58 58 58 59 60 59 57 56 56 55 52 51 51 51 50 47 41 41 228 232 237 244 251 258 261 263 262 259 256 253 252 252 251 250 249 251
219 227 226 218 205 256 275 251 236 251 267 276 277 274 266 250 55 129 152 156 164 169 160 149 138 125 118 110 103 94 84 75 65 60 54 51 50 47 47 48 49 50 49 48 48 47 47 47 46 47 48 49 51 53 54 54 57 59 59 58 58 58 57 56 56 57 56 54 53 53 54 53 51 51 52 52 51 51 49 41 279 248 247 250 253 255 258 260 261 259 255 255 255 254 252 251 250
250 247 241 237 228 230 256 249 223 222 248 259 267 274 275 106 110 142 136 146 159 159 152 142 138 134 125 116 109 101 91 81 71 63 58 53 49 48 48 48 50 51 50 50 50 48 48 48 47 47 47 47 47 48 50 51 54 56 56 56 56 56 55 54 53 53 51 50 48 47 48 50 49 47 48 49 50 52 54 54 51 37 327 281 269 264 263 260 260 262 261 259 259 257 254 252 251